Weather History for Toledo, OH

Change the Weather History Date:

Thursday, December 8, 2011

  Actual Average Record
Temperature  
Mean Temperature 30 °F 32 °F  
Max Temperature 34 °F 39 °F 65 °F (1966)
Min Temperature 26 °F 25 °F -7 °F (1977)
Degree Days  
Heating Degree Days 35 33  
Month to date heating degree days 235 254  
Since 1 July heating degree days 1345 1487  
Cooling Degree Days 0 0  
Month to date cooling degree days 0 0  
Year to date cooling degree days 997 793  
Moisture  
Dew Point 24 °F    
Average Humidity 77    
Maximum Humidity 85    
Minimum Humidity 69    
Precipitation  
Precipitation 0.00 in 0.09 in 0.74 in (1977)
Month to date precipitation 1.36 0.73  
Year to date precipitation 46.78 32.29  
Snow  
Snow 0.00 in 0.20 in - ()
Month to date snowfall 1.2 1.4  
Since 1 July snowfall 2.6 3.5  
Snow Depth 1.00 in    
Sea Level Pressure  
Sea Level Pressure 30.18 in    
Wind  
Wind Speed 9 mph (SW)    
Max Wind Speed 17 mph    
Max Gust Speed 23 mph    
Visibility 9 miles    
Events      
T = Trace of Precipitation, MM = Missing Value Source: NWS Daily Summary

Daily Weather History Graph

Daily Weather History Graph

Search for Another Location

Airport:

Trip Planner

Search our weather history database for the weather conditions in past years. The results will help you decide how hot, cold, wet, or windy it might be!

Date:

Astronomy

Dec. 08, 2011 Rise Set
Actual Time 7:49 AM EST 5:04 PM EST
Civil Twilight 7:17 AM EST 5:36 PM EST
Nautical Twilight 6:43 AM EST 6:10 PM EST
Astronomical Twilight 6:09 AM EST 6:44 PM EST
Moon 3:43 PM EST (12/8) 5:59 AM EST (12/8)
Length of Visible Light 10h 18m
Length of Day
9h 15m
Waxing Gibbous, 97% of the Moon is Illuminated
Dec 8
Waxing Gibbous
Dec 10
Full
Dec 17
Last Quarter
Dec 24
New
Jan 1
First Quarter

Hourly Weather History & Observations

Time (EST) Temp. Windchill Dew Point Humidity Pressure Visibility Wind Dir Wind Speed Gust Speed Precip Events Conditions
12:34 AM 30.2 °F 19.8 °F 21.2 °F 69% 30.04 in 10.0 mi West 13.8 mph - N/A   Overcast
12:52 AM 30.2 °F 20.2 °F 21.2 °F 69% 30.04 in 10.0 mi WSW 12.7 mph - N/A   Overcast
1:05 AM 30.2 °F 20.2 °F 21.2 °F 69% 30.04 in 10.0 mi WSW 12.7 mph - N/A   Overcast
1:52 AM 30.9 °F 23.5 °F 23.0 °F 72% 30.08 in 10.0 mi West 8.1 mph - N/A   Overcast
2:52 AM 28.9 °F 21.9 °F 23.0 °F 78% 30.11 in 10.0 mi WSW 6.9 mph - N/A   Clear
3:52 AM 28.0 °F 20.0 °F 21.9 °F 78% 30.13 in 10.0 mi WSW 8.1 mph - N/A   Clear
4:52 AM 27.0 °F 18.7 °F 21.9 °F 81% 30.14 in 10.0 mi WSW 8.1 mph - N/A   Clear
5:52 AM 27.0 °F 18.7 °F 21.9 °F 81% 30.16 in 10.0 mi WSW 8.1 mph - N/A   Scattered Clouds
6:52 AM 27.0 °F 23.0 °F 23.0 °F 85% 30.18 in 8.0 mi SW 3.5 mph - N/A   Overcast
7:52 AM 26.1 °F 19.4 °F 21.9 °F 84% 30.21 in 6.0 mi SSW 5.8 mph - N/A   Mostly Cloudy
8:52 AM 27.0 °F 18.0 °F 23.0 °F 85% 30.22 in 6.0 mi SW 9.2 mph - N/A   Clear
9:52 AM 28.9 °F 18.6 °F 24.1 °F 82% 30.24 in 6.0 mi SW 12.7 mph - N/A   Haze
10:52 AM 30.9 °F 20.7 °F 24.1 °F 76% 30.25 in 7.0 mi WSW 13.8 mph - N/A   Mostly Cloudy
11:52 AM 32.0 °F 23.0 °F 24.1 °F 73% 30.24 in 7.0 mi WSW 11.5 mph - N/A   Mostly Cloudy
12:52 PM 33.1 °F 24.9 °F 24.1 °F 70% 30.21 in 8.0 mi SW 10.4 mph - N/A   Overcast
1:52 PM 33.1 °F 24.4 °F 25.0 °F 72% 30.20 in 9.0 mi SW 11.5 mph 19.6 mph N/A   Mostly Cloudy
2:52 PM 34.0 °F 25.0 °F 25.0 °F 70% 30.20 in 9.0 mi SW 12.7 mph - N/A   Mostly Cloudy
3:52 PM 33.8 °F 25.3 °F 24.8 °F 70% 30.19 in 9.0 mi SW 11.5 mph - N/A   Overcast
4:52 PM 33.1 °F 25.5 °F 25.0 °F 72% 30.22 in 9.0 mi SW 9.2 mph - N/A   Mostly Cloudy
5:52 PM 32.0 °F 25.6 °F 25.0 °F 75% 30.22 in 10.0 mi SW 6.9 mph - N/A   Clear
6:52 PM 30.9 °F 24.3 °F 25.0 °F 79% 30.22 in 10.0 mi SW 6.9 mph - N/A   Clear
7:52 PM 30.9 °F 25.2 °F 26.1 °F 82% 30.23 in 10.0 mi SW 5.8 mph - N/A   Clear
8:52 PM 30.9 °F 26.2 °F 26.1 °F 82% 30.22 in 9.0 mi SSW 4.6 mph - N/A   Mostly Cloudy
9:52 PM 32.0 °F 25.6 °F 26.1 °F 79% 30.21 in 10.0 mi SW 6.9 mph - N/A   Overcast
10:52 PM 32.0 °F 27.5 °F 26.1 °F 79% 30.22 in 10.0 mi SSW 4.6 mph - N/A   Overcast
11:52 PM 32.0 °F 24.8 °F 26.1 °F 79% 30.22 in 9.0 mi SW 8.1 mph - N/A   Overcast